Location: Babice
(50.3480°N, 22.9363°E)
Time: 12:06:07
(UTC+00:00)

Cosmos 2278 - Pass Details

Date: 14 July 2020
Orbit: 838 x 854 km, 71.1° (Epoch: 07 August)

Event Time Altitude Azimuth Distance (km) Brightness Sun altitude
Rises 00:16:02 0° 331° (NNW) 3,434 7.4 -14.6°
Reaches altitude 10° 00:18:32 10° 335° (NNW) 2,496 6.7 -14.4°
Maximum altitude 00:24:13 63° 56° (ENE) 955 4.2 -14.0°
Drops below altitude 10° 00:29:53 10° 138° (SE) 2,480 5.9 -13.6°
Sets 00:32:21 0° 142° (SE) 3,412 6.6 -13.4°
